EW1146 Weather Reports


Display with metric or nautical units.
time (UTC)temp
F
wind
direction
speed
MPH
gust
MPH
rain 1hr
in
rain 24hr
in
rain mn
in
humidity
%
barometer
mb
20260505064837 48 128 0.0 1.0 0.00 0.11 0.00 88 1011.3
20260505063348 48 179 0.0 0.0 0.00 0.11 0.00 88 1011.6
20260505061831 47 209 0.0 0.0 0.00 0.11 0.00 89 1011.4
20260505060345 48 209 0.0 0.0 0.00 0.11 0.00 88 1011.6
20260505054833 48 209 0.0 2.0 0.00 0.11 0.11 87 1011.6
20260505053356 48 163 0.0 3.0 0.00 0.11 0.11 86 1011.2
20260505051829 48 181 1.0 6.0 0.00 0.11 0.11 86 1011.2
20260505050339 48 209 2.0 7.0 0.00 0.11 0.11 86 1011.2
20260505040327 49 198 2.0 5.0 0.07 0.11 0.11 88 1011.7
20260505034848 49 210 0.0 4.0 0.09 0.10 0.10 87 1011.6
20260505033328 49 260 4.0 7.0 0.10 0.10 0.10 86 1011.8
20260505031851 49 283 3.0 9.0 0.06 0.06 0.06 85 1011.6
20260505030350 50 293 4.0 7.0 0.04 0.04 0.04 82 1011.4
20260505024831 51 327 1.0 4.0 0.01 0.01 0.01 79 1011.0
20260505023346 51 334 2.0 4.0 0.00 0.00 0.00 75 1010.7
20260505021832 52 317 2.0 4.0 0.00 0.00 0.00 72 1010.5
20260505020351 52 284 1.0 5.0 0.00 0.00 0.00 72 1010.7
20260505014827 52 304 2.0 5.0 0.00 0.00 0.00 71 1010.6
20260505013348 53 323 4.0 10.0 0.00 0.00 0.00 69 1010.2
20260505011827 55 336 9.0 17.0 0.00 0.00 0.00 65 1010.1
20260505010352 57 17 4.0 7.0 0.00 0.00 0.00 60 1009.8
20260505004841 58 327 3.0 5.0 0.00 0.00 0.00 51 1009.8
20260505003347 58 17 4.0 6.0 0.00 0.00 0.00 50 1009.5
20260505001833 59 331 5.0 8.0 0.00 0.00 0.00 50 1009.5
20260505000346 59 25 6.0 10.0 0.00 0.00 0.00 50 1009.3
20260504234830 60 277 6.0 11.0 0.00 0.00 0.00 45 1009.3
20260504233344 61 15 4.0 9.0 0.00 0.00 0.00 41 1009.0
20260504231828 61 309 4.0 13.0 0.00 0.00 0.00 44 1009.0
20260504230345 61 337 9.0 16.0 0.00 0.00 0.00 44 1009.1
20260504224904 63 306 9.0 15.0 0.00 0.00 0.00 38 1009.2
20260504223356 62 329 4.0 8.0 0.00 0.00 0.00 36 1008.9
20260504221839 62 316 5.0 10.0 0.00 0.00 0.00 36 1008.5
20260504220323 63 5 6.0 15.0 0.00 0.00 0.00 37 1008.1
20260504214912 65 355 8.0 19.0 0.00 0.00 0.00 36 1007.9
20260504213327 67 82 12.0 20.0 0.00 0.00 0.00 31 1008.1
20260504211836 67 360 8.0 17.0 0.00 0.00 0.00 33 1008.3
20260504210406 66 11 10.0 20.0 0.00 0.00 0.00 31 1008.6
20260504204907 70 20 4.0 9.0 0.00 0.00 0.00 25 1008.3
20260504203336 69 238 1.0 14.0 0.00 0.00 0.00 27 1008.1
20260504201851 67 209 5.0 12.0 0.00 0.00 0.00 28 1007.9
20260504200343 67 213 7.0 17.0 0.00 0.00 0.00 28 1007.8
20260504194845 70 210 11.0 25.0 0.00 0.00 0.00 24 1008.0
20260504193335 73 315 6.0 10.0 0.00 0.00 0.00 18 1007.6
20260504191838 74 316 5.0 13.0 0.00 0.00 0.00 17 1007.5
20260504190332 73 324 5.0 11.0 0.00 0.00 0.00 18 1007.4
20260504184838 73 290 5.0 15.0 0.00 0.00 0.00 19 1007.5
20260504183354 74 315 8.0 14.0 0.00 0.00 0.00 18 1007.7
20260504181842 74 289 6.0 17.0 0.00 0.00 0.00 19 1007.8
20260504180351 73 321 8.0 16.0 0.00 0.00 0.00 21 1008.1
20260504174833 72 248 9.0 18.0 0.00 0.00 0.00 23 1008.5
20260504173354 70 304 11.0 18.0 0.00 0.00 0.00 24 1008.8
20260504171837 70 273 10.0 20.0 0.00 0.00 0.00 24 1008.9
20260504170345 69 240 9.0 17.0 0.00 0.00 0.00 25 1008.9
20260504160331 65 265 6.0 11.0 0.00 0.00 0.00 28 1009.3
20260504150324 61 231 5.0 8.0 0.00 0.00 0.00 32 1009.4
20260504140340 53 227 1.0 2.0 0.00 0.00 0.00 42 1009.6
20260504130339 48 190 3.0 5.0 0.00 0.00 0.00 45 1009.4
20260504110348 41 210 2.0 3.0 0.00 0.00 0.00 56 1009.5
20260504100328 41 219 0.0 2.0 0.00 0.00 0.00 56 1009.8
20260504081826 46 299 0.0 0.0 0.00 0.00 0.00 49 1010.4
20260504080329 47 301 0.0 0.0 0.00 0.00 0.00 48 1010.4
20260504070327 50 313 1.0 2.0 0.00 0.00 0.00 45 1011.0